QPF
0.08 0.06 0.05 0.06 0.05 0.04 0.03 0.02 0.03 0.04 0.04 0.03 0.05 0.05 0.05 0.05 0.05 0.04 0.05 0.05 0.06 0.06 0.06 0.06 0.05 0.06 0.05 0.05 0.06 0.09 0.10 0.11 0.10 0.08 0.07 0.07 0.08 0.09 0.11 0.11 0.09 0.07 0.06
0.09 0.04 0.03 0.05 0.06 0.04 0.03 0.03 0.05 0.05 0.05 0.05 0.05 0.05 0.04 0.04 0.04 0.04 0.05 0.06 0.05 0.05 0.06 0.08 0.08 0.08 0.07 0.07 0.10 0.11 0.11 0.11 0.10 0.08 0.08 0.09 0.11 0.12 0.13 0.13 0.11 0.08 0.07
0.06 0.03 0.03 0.03 0.04 0.04 0.04 0.05 0.07 0.07 0.06 0.05 0.05 0.03 0.03 0.03 0.03 0.03 0.04 0.05 0.06 0.06 0.07 0.08 0.07 0.09 0.09 0.10 0.11 0.10 0.10 0.11 0.11 0.10 0.09 0.10 0.11 0.09 0.09 0.10 0.10 0.09 0.08
0.01 0.01 0.02 0.03 0.02 0.03 0.04 0.04 0.04 0.05 0.05 0.04 0.04 0.04 0.03 0.03 0.03 0.04 0.06 0.06 0.06 0.06 0.06 0.06 0.07 0.09 0.10 0.11 0.11 0.10 0.10 0.12 0.15 0.14 0.13 0.12 0.11 0.10 0.08 0.07 0.09 0.08 0.07
0.02 0.01 0.02 0.03 0.03 0.03 0.04 0.04 0.03 0.05 0.05 0.05 0.04 0.04 0.03 0.03 0.03 0.05 0.06 0.06 0.06 0.05 0.05 0.06 0.07 0.08 0.09 0.10 0.10 0.10 0.12 0.12 0.12 0.13 0.14 0.15 0.14 0.13 0.11 0.09 0.10 0.10 0.08
0.04 0.03 0.03 0.03 0.03 0.03 0.04 0.05 0.05 0.05 0.06 0.05 0.05 0.04 0.04 0.04 0.04 0.04 0.04 0.04 0.04 0.04 0.05 0.07 0.07 0.05 0.04 0.04 0.05 0.07 0.07 0.06 0.07 0.09 0.10 0.12 0.13 0.13 0.14 0.14 0.12 0.10 0.08
0.07 0.06 0.05 0.04 0.03 0.02 0.03 0.04 0.05 0.04 0.04 0.04 0.04 0.04 0.03 0.03 0.04 0.03 0.03 0.03 0.03 0.03 0.03 0.03 0.04 0.03 0.03 0.04 0.05 0.05 0.05 0.06 0.06 0.07 0.09 0.10 0.11 0.11 0.12 0.12 0.10 0.08 0.07
0.07 0.07 0.06 0.03 0.02 0.01 0.03 0.05 0.05 0.04 0.04 0.04 0.03 0.03 0.02 0.02 0.03 0.03 0.03 0.03 0.03 0.02 0.01 0.01 0.02 0.02 0.03 0.04 0.04 0.04 0.04 0.06 0.07 0.06 0.07 0.09 0.09 0.10 0.10 0.09 0.08 0.08 0.08
0.07 0.07 0.05 0.02 0.02 0.01 0.03 0.06 0.06 0.07 0.07 0.05 0.03 0.02 0.02 0.02 0.03 0.03 0.02 0.02 0.02 0.02 0.02 0.02 0.01 0.01 0.02 0.03 0.03 0.03 0.03 0.04 0.07 0.09 0.10 0.10 0.10 0.10 0.10 0.10 0.10 0.10 0.09
0.06 0.07 0.05 0.03 0.02 0.02 0.02 0.03 0.03 0.05 0.07 0.07 0.04 0.02 0.01 0.01 0.02 0.02 0.01 0.01 0.01 0.01 0.02 0.01 0.01 0.01 0.02 0.02 0.02 0.02 0.02 0.03 0.05 0.06 0.07 0.08 0.08 0.09 0.10 0.10 0.10 0.10 0.10
0.05 0.04 0.03 0.02 0.02 0.02 0.02 0.01 0.01 0.01 0.01 0.02 0.03 0.02 0.02 0.02 0.03 0.02 0.01 0.01 0.01 0.01 0.01 0.01 0.01 0.01 0.02 0.02 0.01 0.01 0.01 0.01 0.02 0.03 0.03 0.04 0.04 0.05 0.06 0.07 0.09 0.11 0.12
0.03 0.03 0.02 0.02 0.02 0.02 0.01 0.01 0.01 0.01 0.01 0.01 0.02 0.02 0.02 0.02 0.02 0.02 0.02 0.01 0.01 0.01 0.01 0.01 0.01 0.02 0.03 0.02 0.02 0.01 0.01 0.01 0.02 0.02 0.03 0.03 0.04 0.05 0.05 0.06 0.07 0.09 0.10
0.05 0.05 0.03 0.02 0.02 0.01 0.01 0.01 0.01 0.01 0.01 0.02 0.02 0.02 0.01 0.02 0.02 0.03 0.03 0.02 0.02 0.01 0.00 0.00 0.00 0.01 0.01 0.02 0.01 0.01 0.01 0.01 0.02 0.03 0.04 0.05 0.06 0.06 0.05 0.05 0.05 0.06 0.06
0.03 0.02 0.02 0.01 0.01 0.01 0.01 0.01 0.01 0.01 0.01 0.01 0.01 0.01 0.01 0.01 0.01 0.01 0.02 0.02 0.03 0.02 0.02 0.02 0.02 0.02 0.02 0.02 0.01 0.01 0.01 0.01 0.02 0.02 0.03 0.04 0.05 0.06 0.06 0.06 0.06 0.06 0.05
0.02 0.01 0.01 0.01 0.01 0.01 0.01 0.01 0.01 0.01 0.01 0.01 0.01 0.01 0.01 0.01 0.01 0.01 0.01 0.02 0.03 0.04 0.04 0.03 0.03 0.03 0.02 0.01 0.01 0.01 0.01 0.01 0.02 0.02 0.03 0.03 0.03 0.03 0.03 0.03 0.03 0.04 0.04
0.02 0.02 0.02 0.02 0.01 0.01 0.01 0.01 0.01 0.01 0.00 0.01 0.01 0.01 0.02 0.03 0.03 0.03 0.03 0.03 0.02 0.02 0.02 0.01 0.02 0.02 0.02 0.02 0.02 0.02 0.02 0.02 0.03 0.03 0.03 0.03 0.03 0.03 0.03 0.02 0.03 0.03 0.04
0.04 0.03 0.02 0.02 0.02 0.02 0.02 0.02 0.01 0.01 0.01 0.01 0.01 0.01 0.01 0.01 0.02 0.01 0.01 0.01 0.02 0.02 0.01 0.01 0.01 0.01 0.02 0.02 0.02 0.03 0.03 0.04 0.04 0.04 0.03 0.03 0.03 0.03 0.03 0.03 0.02 0.02 0.02
0.03 0.03 0.02 0.01 0.01 0.01 0.01 0.02 0.01 0.01 0.01 0.01 0.01 0.01 0.01 0.01 0.01 0.01 0.01 0.01 0.01 0.01 0.01 0.01 0.02 0.02 0.03 0.03 0.04 0.04 0.04 0.04 0.04 0.04 0.04 0.04 0.04 0.04 0.04 0.03 0.03 0.02 0.02
0.01 0.01 0.01 0.00 0.01 0.01 0.01 0.01 0.01 0.01 0.01 0.01 0.01 0.02 0.02 0.02 0.02 0.02 0.01 0.01 0.01 0.01 0.02 0.02 0.03 0.03 0.03 0.04 0.04 0.05 0.05 0.05 0.05 0.05 0.05 0.05 0.05 0.05 0.05 0.04 0.03 0.03 0.02
0.02 0.01 0.01 0.00 0.00 0.00 0.00 0.00 0.01 0.01 0.01 0.01 0.02 0.02 0.02 0.02 0.02 0.02 0.02 0.01 0.01 0.02 0.02 0.03 0.03 0.02 0.02 0.02 0.03 0.04 0.04 0.05 0.05 0.06 0.06 0.06 0.06 0.06 0.06 0.05 0.05 0.04 0.03
0.02 0.01 0.01 0.01 0.01 0.01 0.01 0.01 0.02 0.03 0.03 0.03 0.03 0.04 0.04 0.02 0.02 0.02 0.02 0.03 0.03 0.03 0.03 0.03 0.02 0.02 0.02 0.02 0.03 0.03 0.04 0.04 0.04 0.04 0.05 0.05 0.05 0.05 0.04 0.04 0.04 0.03 0.02
0.02 0.02 0.01 0.01 0.01 0.01 0.01 0.02 0.04 0.04 0.04 0.04 0.03 0.03 0.03 0.02 0.02 0.02 0.02 0.02 0.01 0.01 0.02 0.02 0.02 0.02 0.02 0.02 0.02 0.03 0.03 0.03 0.04 0.04 0.04 0.05 0.05 0.04 0.03 0.03 0.02 0.02 0.01
0.04 0.03 0.02 0.02 0.02 0.02 0.02 0.02 0.02 0.02 0.02 0.01 0.01 0.02 0.02 0.02 0.01 0.01 0.01 0.01 0.00 0.00 0.01 0.01 0.01 0.01 0.02 0.02 0.02 0.02 0.03 0.03 0.03 0.04 0.04 0.04 0.04 0.03 0.03 0.02 0.02 0.02 0.01
0.03 0.03 0.02 0.02 0.02 0.02 0.02 0.03 0.03 0.02 0.02 0.02 0.02 0.01 0.01 0.01 0.01 0.00 0.00 0.00 0.00 0.00 0.00 0.01 0.01 0.01 0.01 0.02 0.02 0.02 0.03 0.03 0.03 0.04 0.03 0.03 0.03 0.02 0.02 0.02 0.01 0.01 0.01
0.01 0.01 0.01 0.01 0.01 0.00 0.01 0.01 0.01 0.01 0.01 0.01 0.01 0.01 0.00 0.00 0.00 0.00 0.00 0.00 0.00 0.00 0.00 0.00 0.00 0.01 0.01 0.01 0.01 0.02 0.02 0.02 0.02 0.02 0.02 0.02 0.01 0.01 0.01 0.01 0.01 0.00 0.00
0.00 0.00 0.00 0.00 0.00 0.00 0.00 0.01 0.01 0.01 0.01 0.01 0.01 0.01 0.00 0.00 0.00 0.00 0.00 0.00 0.00 0.00 0.00 0.00 0.01 0.01 0.01 0.01 0.01 0.02 0.02 0.02 0.01 0.01 0.01 0.01 0.01 0.01 0.01 0.01 0.00 0.00 0.00
MSLP
1015.16 1015.58 1015.97 1016.28 1016.51 1016.64 1016.70 1016.73 1016.75 1016.80 1016.87 1016.98 1017.09 1017.16 1017.17 1017.09 1016.92 1016.66 1016.33 1015.98 1015.63 1015.34 1015.10 1014.94 1014.84 1014.80 1014.78 1014.80 1014.82 1014.86 1014.92 1015.00 1015.12 1015.27 1015.44 1015.61 1015.78 1015.93 1016.06 1016.17 1016.30 1016.47 1016.71
1015.35 1015.77 1016.14 1016.43 1016.64 1016.77 1016.84 1016.88 1016.92 1016.99 1017.08 1017.19 1017.30 1017.36 1017.36 1017.26 1017.05 1016.76 1016.39 1015.98 1015.57 1015.18 1014.84 1014.55 1014.32 1014.14 1014.01 1013.92 1013.88 1013.89 1013.96 1014.11 1014.32 1014.60 1014.93 1015.28 1015.63 1015.96 1016.26 1016.53 1016.79 1017.06 1017.39
1015.54 1015.97 1016.34 1016.64 1016.84 1016.97 1017.04 1017.10 1017.16 1017.24 1017.34 1017.46 1017.56 1017.61 1017.59 1017.47 1017.24 1016.92 1016.51 1016.06 1015.59 1015.13 1014.69 1014.29 1013.93 1013.62 1013.35 1013.14 1013.01 1012.96 1013.01 1013.18 1013.47 1013.86 1014.33 1014.85 1015.39 1015.91 1016.40 1016.86 1017.28 1017.70 1018.14
1015.68 1016.14 1016.53 1016.83 1017.04 1017.17 1017.26 1017.33 1017.41 1017.51 1017.63 1017.75 1017.84 1017.88 1017.84 1017.71 1017.46 1017.12 1016.70 1016.22 1015.71 1015.19 1014.68 1014.18 1013.71 1013.27 1012.87 1012.54 1012.30 1012.17 1012.17 1012.33 1012.65 1013.11 1013.69 1014.35 1015.06 1015.77 1016.45 1017.10 1017.70 1018.28 1018.84
1015.72 1016.21 1016.62 1016.94 1017.17 1017.32 1017.43 1017.53 1017.63 1017.75 1017.89 1018.01 1018.11 1018.15 1018.10 1017.95 1017.70 1017.36 1016.93 1016.44 1015.91 1015.36 1014.80 1014.23 1013.68 1013.13 1012.62 1012.18 1011.83 1011.60 1011.54 1011.65 1011.96 1012.45 1013.10 1013.86 1014.70 1015.56 1016.41 1017.22 1017.99 1018.72 1019.41
1015.63 1016.15 1016.59 1016.93 1017.18 1017.36 1017.51 1017.64 1017.77 1017.92 1018.08 1018.22 1018.33 1018.37 1018.32 1018.18 1017.93 1017.60 1017.18 1016.71 1016.19 1015.63 1015.05 1014.45 1013.84 1013.22 1012.63 1012.10 1011.65 1011.34 1011.19 1011.25 1011.52 1011.99 1012.66 1013.47 1014.38 1015.34 1016.30 1017.25 1018.15 1019.00 1019.79
1015.40 1015.95 1016.41 1016.78 1017.06 1017.27 1017.45 1017.62 1017.80 1017.99 1018.18 1018.34 1018.47 1018.52 1018.49 1018.37 1018.14 1017.83 1017.45 1017.01 1016.52 1015.99 1015.42 1014.82 1014.20 1013.55 1012.92 1012.32 1011.81 1011.42 1011.20 1011.18 1011.39 1011.82 1012.46 1013.26 1014.19 1015.19 1016.21 1017.22 1018.20 1019.12 1019.99
1015.07 1015.64 1016.12 1016.51 1016.82 1017.07 1017.29 1017.51 1017.73 1017.96 1018.18 1018.38 1018.53 1018.61 1018.61 1018.51 1018.32 1018.06 1017.72 1017.33 1016.90 1016.42 1015.90 1015.34 1014.74 1014.10 1013.46 1012.84 1012.29 1011.86 1011.58 1011.50 1011.64 1012.00 1012.57 1013.33 1014.21 1015.19 1016.21 1017.22 1018.22 1019.16 1020.06
1014.69 1015.27 1015.77 1016.18 1016.52 1016.81 1017.08 1017.33 1017.60 1017.86 1018.12 1018.36 1018.54 1018.65 1018.67 1018.62 1018.48 1018.27 1017.99 1017.68 1017.31 1016.91 1016.46 1015.97 1015.42 1014.84 1014.23 1013.63 1013.08 1012.63 1012.31 1012.18 1012.26 1012.54 1013.04 1013.71 1014.52 1015.42 1016.37 1017.34 1018.29 1019.20 1020.07
1014.31 1014.91 1015.42 1015.86 1016.23 1016.56 1016.87 1017.16 1017.47 1017.77 1018.06 1018.32 1018.52 1018.66 1018.72 1018.71 1018.62 1018.47 1018.28 1018.04 1017.76 1017.44 1017.08 1016.68 1016.21 1015.70 1015.16 1014.61 1014.09 1013.65 1013.34 1013.18 1013.20 1013.42 1013.82 1014.40 1015.10 1015.90 1016.75 1017.62 1018.49 1019.32 1020.12
1013.98 1014.59 1015.13 1015.60 1016.01 1016.37 1016.72 1017.05 1017.38 1017.71 1018.02 1018.30 1018.52 1018.69 1018.78 1018.81 1018.77 1018.69 1018.56 1018.40 1018.22 1017.99 1017.73 1017.42 1017.05 1016.63 1016.17 1015.70 1015.24 1014.84 1014.55 1014.39 1014.38 1014.55 1014.88 1015.35 1015.95 1016.63 1017.36 1018.11 1018.85 1019.58 1020.28
1013.69 1014.32 1014.89 1015.40 1015.85 1016.26 1016.64 1017.01 1017.37 1017.72 1018.04 1018.33 1018.56 1018.74 1018.86 1018.92 1018.93 1018.90 1018.85 1018.77 1018.66 1018.53 1018.36 1018.14 1017.87 1017.55 1017.19 1016.80 1016.42 1016.09 1015.84 1015.70 1015.69 1015.82 1016.09 1016.49 1016.98 1017.54 1018.15 1018.77 1019.38 1019.99 1020.58
1013.42 1014.07 1014.67 1015.23 1015.73 1016.19 1016.62 1017.03 1017.41 1017.78 1018.11 1018.39 1018.63 1018.82 1018.95 1019.04 1019.08 1019.10 1019.10 1019.09 1019.06 1019.01 1018.92 1018.79 1018.61 1018.39 1018.12 1017.82 1017.53 1017.28 1017.09 1016.98 1016.99 1017.11 1017.35 1017.68 1018.09 1018.55 1019.04 1019.54 1020.04 1020.52 1021.00
1013.10 1013.78 1014.42 1015.02 1015.58 1016.10 1016.59 1017.04 1017.45 1017.83 1018.17 1018.46 1018.70 1018.88 1019.02 1019.12 1019.20 1019.25 1019.30 1019.34 1019.37 1019.38 1019.36 1019.31 1019.21 1019.07 1018.89 1018.68 1018.48 1018.30 1018.18 1018.13 1018.16 1018.29 1018.51 1018.80 1019.15 1019.53 1019.93 1020.33 1020.72 1021.10 1021.47
1012.68 1013.37 1014.05 1014.70 1015.33 1015.91 1016.46 1016.96 1017.41 1017.82 1018.17 1018.46 1018.70 1018.89 1019.03 1019.14 1019.23 1019.31 1019.39 1019.47 1019.54 1019.60 1019.63 1019.64 1019.61 1019.53 1019.43 1019.31 1019.18 1019.08 1019.03 1019.03 1019.11 1019.26 1019.47 1019.74 1020.05 1020.38 1020.71 1021.03 1021.34 1021.63 1021.92
1012.09 1012.79 1013.50 1014.21 1014.89 1015.55 1016.16 1016.72 1017.22 1017.66 1018.04 1018.35 1018.59 1018.78 1018.93 1019.05 1019.15 1019.25 1019.35 1019.44 1019.54 1019.63 1019.71 1019.76 1019.77 1019.76 1019.71 1019.66 1019.60 1019.57 1019.58 1019.63 1019.75 1019.92 1020.15 1020.41 1020.70 1020.99 1021.28 1021.55 1021.80 1022.04 1022.27
1011.36 1012.05 1012.78 1013.53 1014.27 1014.99 1015.67 1016.30 1016.86 1017.35 1017.76 1018.09 1018.35 1018.55 1018.71 1018.84 1018.95 1019.05 1019.16 1019.27 1019.39 1019.50 1019.59 1019.67 1019.72 1019.75 1019.76 1019.75 1019.76 1019.78 1019.84 1019.94 1020.09 1020.29 1020.53 1020.79 1021.07 1021.34 1021.61 1021.85 1022.07 1022.27 1022.46
1010.53 1011.20 1011.94 1012.72 1013.52 1014.30 1015.04 1015.73 1016.35 1016.89 1017.35 1017.71 1018.00 1018.22 1018.39 1018.52 1018.64 1018.75 1018.86 1018.98 1019.10 1019.21 1019.32 1019.42 1019.49 1019.55 1019.60 1019.64 1019.69 1019.76 1019.86 1020.00 1020.18 1020.39 1020.64 1020.90 1021.18 1021.44 1021.69 1021.92 1022.13 1022.32 1022.49
1009.72 1010.37 1011.11 1011.91 1012.73 1013.56 1014.36 1015.11 1015.78 1016.37 1016.87 1017.27 1017.59 1017.83 1018.02 1018.16 1018.28 1018.40 1018.50 1018.62 1018.73 1018.85 1018.96 1019.07 1019.16 1019.24 1019.31 1019.39 1019.48 1019.58 1019.71 1019.88 1020.07 1020.30 1020.55 1020.81 1021.08 1021.34 1021.59 1021.81 1022.02 1022.21 1022.39
1009.08 1009.70 1010.42 1011.22 1012.06 1012.92 1013.75 1014.54 1015.26 1015.89 1016.42 1016.86 1017.20 1017.47 1017.67 1017.82 1017.95 1018.05 1018.16 1018.26 1018.37 1018.48 1018.59 1018.69 1018.79 1018.89 1018.99 1019.09 1019.20 1019.33 1019.48 1019.67 1019.87 1020.10 1020.35 1020.61 1020.87 1021.12 1021.36 1021.59 1021.81 1022.01 1022.20
1008.74 1009.32 1010.02 1010.80 1011.64 1012.50 1013.35 1014.15 1014.89 1015.54 1016.10 1016.56 1016.92 1017.20 1017.41 1017.57 1017.69 1017.79 1017.88 1017.97 1018.07 1018.16 1018.27 1018.37 1018.47 1018.58 1018.69 1018.81 1018.94 1019.09 1019.26 1019.45 1019.66 1019.89 1020.13 1020.37 1020.62 1020.86 1021.10 1021.33 1021.55 1021.76 1021.97
1008.78 1009.33 1009.99 1010.74 1011.56 1012.39 1013.23 1014.02 1014.76 1015.41 1015.97 1016.43 1016.80 1017.08 1017.28 1017.44 1017.55 1017.64 1017.72 1017.79 1017.87 1017.95 1018.04 1018.13 1018.23 1018.34 1018.46 1018.60 1018.74 1018.91 1019.08 1019.28 1019.49 1019.71 1019.93 1020.16 1020.39 1020.62 1020.84 1021.06 1021.29 1021.51 1021.73
1009.23 1009.75 1010.37 1011.07 1011.84 1012.63 1013.42 1014.18 1014.88 1015.50 1016.04 1016.48 1016.83 1017.10 1017.30 1017.44 1017.54 1017.61 1017.67 1017.72 1017.77 1017.83 1017.90 1017.99 1018.08 1018.19 1018.32 1018.46 1018.62 1018.79 1018.97 1019.17 1019.38 1019.58 1019.79 1020.00 1020.21 1020.41 1020.62 1020.83 1021.04 1021.26 1021.48
1010.01 1010.50 1011.07 1011.72 1012.42 1013.14 1013.86 1014.55 1015.19 1015.76 1016.25 1016.66 1016.98 1017.22 1017.39 1017.51 1017.59 1017.64 1017.67 1017.70 1017.73 1017.77 1017.83 1017.90 1017.98 1018.09 1018.22 1018.37 1018.53 1018.71 1018.90 1019.10 1019.30 1019.50 1019.69 1019.88 1020.06 1020.24 1020.42 1020.60 1020.80 1021.00 1021.22
1011.01 1011.45 1011.97 1012.55 1013.17 1013.81 1014.44 1015.05 1015.61 1016.10 1016.53 1016.88 1017.15 1017.35 1017.50 1017.59 1017.64 1017.67 1017.68 1017.68 1017.69 1017.71 1017.74 1017.80 1017.88 1017.98 1018.11 1018.26 1018.43 1018.62 1018.81 1019.02 1019.21 1019.41 1019.59 1019.75 1019.91 1020.06 1020.21 1020.37 1020.53 1020.71 1020.90
1012.05 1012.44 1012.90 1013.40 1013.94 1014.48 1015.02 1015.52 1015.99 1016.40 1016.75 1017.04 1017.26 1017.41 1017.52 1017.58 1017.61 1017.61 1017.60 1017.58 1017.57 1017.57 1017.59 1017.63 1017.70 1017.80 1017.92 1018.08 1018.26 1018.45 1018.66 1018.87 1019.07 1019.26 1019.43 1019.58 1019.72 1019.84 1019.96 1020.08 1020.21 1020.36 1020.53
Thickness
5766 5763 5760 5757 5756 5754 5751 5749 5748 5747 5745 5743 5741 5739 5737 5736 5734 5732 5730 5729 5727 5726 5725 5724 5723 5723 5721 5720 5718 5716 5712 5709 5702 5700 5699 5697 5694 5693 5690 5687 5684 5681 5678
5765 5761 5758 5756 5754 5751 5749 5747 5746 5745 5743 5741 5739 5736 5735 5733 5732 5730 5727 5726 5724 5722 5722 5721 5720 5719 5718 5716 5714 5711 5709 5706 5701 5695 5692 5689 5687 5685 5682 5679 5676 5673 5670
5762 5759 5755 5753 5751 5748 5746 5745 5744 5742 5740 5738 5735 5733 5731 5730 5728 5727 5724 5723 5721 5719 5719 5717 5716 5715 5712 5711 5709 5707 5704 5702 5698 5692 5687 5684 5680 5677 5673 5670 5667 5663 5661
5760 5756 5752 5750 5748 5746 5744 5742 5741 5739 5736 5734 5731 5729 5728 5727 5725 5723 5721 5719 5717 5716 5715 5713 5712 5710 5708 5706 5704 5702 5699 5696 5691 5687 5682 5678 5673 5669 5666 5662 5656 5653 5651
5757 5752 5749 5747 5745 5742 5740 5738 5736 5734 5732 5729 5727 5725 5724 5722 5721 5719 5717 5715 5713 5710 5709 5708 5707 5705 5704 5702 5700 5697 5694 5690 5686 5681 5676 5671 5666 5662 5659 5655 5649 5645 5640
5754 5750 5746 5743 5740 5737 5735 5733 5731 5729 5727 5724 5722 5720 5718 5717 5716 5714 5712 5709 5707 5705 5702 5701 5699 5698 5697 5696 5694 5692 5690 5685 5681 5676 5672 5667 5663 5659 5654 5649 5643 5638 5632
5751 5747 5742 5740 5736 5733 5731 5728 5726 5723 5721 5718 5716 5714 5712 5711 5710 5708 5706 5703 5701 5699 5696 5694 5693 5691 5689 5688 5686 5685 5683 5681 5678 5673 5667 5663 5659 5655 5650 5644 5639 5634 5629
5747 5743 5739 5736 5732 5730 5726 5723 5721 5718 5715 5712 5710 5709 5707 5705 5704 5702 5700 5697 5694 5692 5690 5688 5685 5683 5682 5680 5678 5676 5674 5672 5670 5667 5663 5660 5656 5651 5647 5642 5635 5627 5620
5742 5739 5735 5733 5728 5724 5721 5718 5715 5712 5709 5707 5705 5703 5701 5699 5698 5696 5693 5690 5687 5684 5683 5680 5678 5676 5674 5672 5670 5667 5664 5662 5660 5658 5655 5652 5648 5644 5640 5633 5626 5618 5610
5739 5735 5732 5729 5724 5720 5716 5712 5709 5706 5704 5701 5699 5697 5695 5693 5692 5689 5687 5683 5679 5676 5674 5672 5671 5669 5667 5664 5661 5658 5654 5651 5649 5647 5644 5641 5638 5635 5631 5627 5621 5613 5604
5735 5731 5727 5724 5720 5716 5711 5707 5704 5701 5698 5695 5692 5690 5688 5687 5685 5683 5680 5676 5673 5669 5666 5664 5662 5661 5659 5656 5653 5650 5647 5644 5640 5637 5633 5630 5627 5624 5621 5617 5612 5607 5598
5729 5725 5721 5717 5715 5711 5706 5702 5698 5695 5691 5687 5684 5682 5680 5679 5677 5675 5673 5670 5667 5663 5659 5656 5655 5653 5651 5648 5645 5642 5639 5635 5630 5626 5622 5618 5615 5612 5608 5605 5601 5596 5592
5722 5717 5713 5710 5707 5703 5699 5695 5691 5687 5683 5680 5677 5674 5671 5669 5668 5667 5665 5662 5659 5656 5652 5649 5647 5644 5641 5638 5636 5632 5629 5625 5620 5615 5611 5607 5604 5600 5597 5592 5588 5584 5579
5713 5709 5706 5702 5697 5694 5690 5687 5683 5679 5676 5673 5669 5666 5663 5661 5659 5657 5655 5653 5650 5647 5644 5640 5637 5634 5631 5628 5625 5622 5618 5614 5610 5605 5601 5596 5593 5588 5584 5580 5575 5570 5565
5705 5701 5697 5694 5689 5684 5680 5676 5674 5671 5669 5666 5663 5660 5657 5653 5651 5648 5646 5644 5641 5638 5634 5630 5627 5623 5620 5616 5613 5610 5607 5603 5599 5595 5590 5585 5581 5577 5572 5568 5563 5559 5553
5697 5693 5689 5685 5681 5676 5671 5665 5662 5661 5660 5658 5656 5653 5649 5646 5643 5640 5638 5635 5632 5629 5625 5620 5617 5613 5610 5606 5602 5599 5596 5592 5589 5585 5580 5575 5570 5566 5561 5557 5553 5548 5542
5690 5685 5681 5677 5672 5668 5663 5660 5655 5651 5649 5647 5645 5642 5640 5636 5633 5630 5627 5625 5622 5619 5614 5611 5607 5604 5600 5596 5593 5589 5585 5581 5578 5574 5570 5565 5561 5556 5552 5547 5542 5538 5533
5682 5678 5673 5669 5665 5660 5656 5652 5648 5644 5640 5636 5633 5631 5628 5625 5623 5620 5617 5614 5610 5607 5604 5600 5597 5594 5590 5586 5582 5579 5575 5571 5567 5563 5559 5555 5551 5546 5541 5536 5532 5528 5523
5673 5669 5665 5660 5656 5652 5648 5643 5639 5635 5631 5627 5623 5620 5617 5614 5612 5609 5606 5603 5600 5596 5593 5590 5587 5584 5580 5576 5573 5569 5565 5561 5557 5553 5548 5545 5541 5536 5532 5527 5523 5519 5514
5663 5661 5656 5651 5647 5643 5639 5635 5630 5625 5621 5618 5614 5610 5607 5604 5601 5598 5595 5592 5589 5586 5583 5580 5578 5574 5570 5567 5563 5559 5555 5551 5547 5543 5539 5535 5531 5527 5523 5519 5514 5510 5505
5653 5650 5647 5642 5638 5634 5630 5626 5622 5617 5613 5609 5605 5602 5598 5595 5592 5588 5585 5582 5579 5576 5573 5570 5567 5564 5561 5557 5553 5550 5546 5541 5537 5534 5530 5526 5522 5518 5514 5511 5506 5502 5498
5642 5639 5635 5631 5628 5624 5621 5617 5613 5608 5604 5599 5595 5592 5588 5585 5581 5578 5575 5573 5570 5567 5565 5561 5558 5555 5552 5549 5545 5540 5536 5532 5529 5525 5522 5518 5514 5510 5506 5502 5498 5494 5490
5631 5628 5624 5621 5618 5614 5610 5606 5602 5598 5594 5590 5587 5582 5578 5574 5571 5569 5566 5563 5561 5558 5555 5552 5549 5546 5543 5540 5536 5532 5529 5525 5522 5519 5514 5510 5506 5502 5498 5494 5491 5487 5484
5620 5616 5613 5609 5606 5603 5599 5596 5592 5589 5585 5581 5577 5574 5570 5566 5563 5560 5558 5555 5552 5549 5547 5544 5541 5538 5535 5531 5528 5524 5521 5518 5514 5511 5507 5503 5498 5494 5491 5487 5484 5481 5478
5608 5605 5602 5599 5596 5593 5589 5586 5582 5579 5576 5573 5569 5565 5561 5558 5554 5552 5550 5547 5544 5541 5538 5535 5532 5529 5526 5523 5519 5516 5513 5510 5506 5503 5499 5495 5492 5488 5484 5481 5477 5475 5472
5597 5595 5592 5589 5586 5583 5580 5576 5573 5570 5566 5564 5560 5557 5554 5550 5547 5544 5541 5538 5535 5532 5530 5527 5524 5521 5517 5514 5511 5508 5504 5501 5498 5495 5491 5488 5484 5481 5477 5474 5472 5469 5467